Change the Weather History Date:

Sunday, March 4, 2012

  Actual Average Record
Temperature  
Mean Temperature 53 °F 59 °F  
Max Temperature 68 °F 70 °F 87 °F (1908)
Min Temperature 38 °F 48 °F 23 °F (1943)
Degree Days  
Heating Degree Days 12 7  
Month to date heating degree days 19 30  
Since 1 July heating degree days 1098 1365  
Cooling Degree Days 0 1  
Month to date cooling degree days 24 4  
Year to date cooling degree days 103 35  
Growing Degree Days 2 (Base 50)    
Moisture  
Dew Point 33 °F    
Average Humidity 57    
Maximum Humidity 92    
Minimum Humidity 22    
Precipitation  
Precipitation 0.00 in 0.16 in 1.53 in (1915)
Month to date precipitation 0.31 0.63  
Year to date precipitation 13.62 11.39  
Snow  
Snow 0.00 in - - ()
Month to date snowfall 0.0  
Since 1 July snowfall 0.0  
Snow Depth 0.00 in    
Sea Level Pressure  
Sea Level Pressure 30.18 in    
Wind  
Wind Speed 7 mph (West)    
Max Wind Speed 18 mph    
Max Gust Speed 25 mph    
Visibility 10 miles    
Events      
T = Trace of Precipitation, MM = Missing Value Source: NWS Daily Summary

Daily Weather History Graph

Daily Weather History Graph

Search for Another Location

Airport or City:

Trip Planner

Search our weather history database for the weather conditions in past years. The results will help you decide how hot, cold, wet, or windy it might be!

Date:

Astronomy

Mar. 04, 2012 Rise Set
Actual Time 6:26 AM CST 6:05 PM CST
Civil Twilight 6:02 AM CST 6:29 PM CST
Nautical Twilight 5:34 AM CST 6:57 PM CST
Astronomical Twilight 5:07 AM CST 7:25 PM CST
Moon 2:31 PM CST (3/4) 3:33 AM CST (3/4)
Length of Visible Light 12h 27m
Length of Day
11h 38m
Waxing Gibbous, 84% of the Moon is Illuminated
Mar 4
Waxing Gibbous
Mar 8
Full
Mar 14
Last Quarter
Mar 22
New
Mar 30
First Quarter

Hourly Weather History & Observations

Time (CST) Temp. Windchill Dew Point Humidity Pressure Visibility Wind Dir Wind Speed Gust Speed Precip Events Conditions
12:53 AM 44.1 °F 40.8 °F 36.0 °F 73% 30.11 in 10.0 mi West 5.8 mph - N/A   Clear
1:53 AM 44.1 °F 41.5 °F 34.0 °F 68% 30.12 in 10.0 mi West 4.6 mph - N/A   Clear
2:53 AM 43.0 °F 40.3 °F 35.1 °F 74% 30.12 in 10.0 mi WNW 4.6 mph - N/A   Clear
3:53 AM 44.1 °F 41.5 °F 35.1 °F 71% 30.14 in 10.0 mi WNW 4.6 mph - N/A   Clear
4:53 AM 39.9 °F - 37.0 °F 89% 30.14 in 10.0 mi Calm Calm - N/A   Clear
5:53 AM 39.0 °F - 36.0 °F 89% 30.16 in 10.0 mi Calm Calm - N/A   Clear
6:53 AM 39.0 °F - 36.0 °F 89% 30.18 in 10.0 mi Calm Calm - N/A   Clear
7:53 AM 46.9 °F - 41.0 °F 80% 30.20 in 10.0 mi Calm Calm - N/A   Clear
8:53 AM 53.1 °F - 37.0 °F 55% 30.22 in 10.0 mi WSW 3.5 mph - N/A   Clear
9:53 AM 57.9 °F - 27.0 °F 31% 30.22 in 10.0 mi WSW 6.9 mph - N/A   Clear
10:53 AM 62.1 °F - 28.9 °F 29% 30.23 in 10.0 mi West 17.3 mph - N/A   Clear
11:53 AM 64.0 °F - 24.1 °F 22% 30.22 in 10.0 mi NW 12.7 mph 19.6 mph N/A   Clear
12:53 PM 64.9 °F - 26.1 °F 23% 30.19 in 10.0 mi WNW 9.2 mph 20.7 mph N/A   Clear
1:53 PM 66.0 °F - 26.1 °F 22% 30.17 in 10.0 mi West 10.4 mph - N/A   Clear
2:53 PM 66.9 °F - 26.1 °F 21% 30.16 in 10.0 mi WNW 9.2 mph - N/A   Clear
3:53 PM 66.9 °F - 26.1 °F 21% 30.16 in 10.0 mi West 10.4 mph 19.6 mph N/A   Clear
4:53 PM 66.0 °F - 28.9 °F 25% 30.15 in 10.0 mi SW 5.8 mph - N/A   Clear
5:53 PM 62.1 °F - 30.9 °F 31% 30.15 in 10.0 mi SW 5.8 mph - N/A   Clear
6:53 PM 57.0 °F - 33.1 °F 40% 30.17 in 10.0 mi WSW 5.8 mph - N/A   Clear
7:53 PM 57.0 °F - 32.0 °F 39% 30.18 in 10.0 mi SW 6.9 mph - N/A   Clear
8:53 PM 57.9 °F - 37.0 °F 46% 30.22 in 10.0 mi WSW 10.4 mph - N/A   Clear
9:53 PM 55.0 °F - 41.0 °F 59% 30.24 in 10.0 mi WSW 8.1 mph - N/A   Clear
10:53 PM 54.0 °F - 42.1 °F 64% 30.25 in 10.0 mi SW 8.1 mph - N/A   Clear
11:53 PM 53.1 °F - 43.0 °F 69% 30.26 in 10.0 mi WSW 8.1 mph - N/A   Clear